Regional Weather Roundup
Issued by NWS

Home | Current Version | Previous Version | Graphics & Text | Print | Product List | Glossary On
Versions: 1 2 3 4 5 6 7 8 9 10 11 12 13 14 15 16 17 18 19 20 21 22 23 24 25 26 27 28 29 30 31 32 33 34 35 36 37 38 39 40 41 42 43 44 45 46 47 48 49 50
315
ASUS45 KBOI 300210
RWRID

IDAHO REGIONAL WEATHER ROUNDUP
NATIONAL WEATHER SERVICE BOISE ID
800 PM MDT FRI APR 29 2016

NOTE: "FAIR" INDICATES FEW OR NO CLOUDS BELOW 12000 FEET
WITH NO SIGNIFICANT WEATHER AND/OR OBSTRUCTIONS TO VISIBILITY

IDZ012-014-300300-
SOUTHWEST IDAHO


CITY           SKY/WX    TMP DP  RH WIND       PRES   REMARKS
BOISE          PTCLDY    56  37  49 NW17G26   29.87R
CALDWELL       CLOUDY    56  38  50 NW14      29.90R
MOUNTAIN HOME  MOCLDY    57  36  46 NW25G32   29.85R
$$

IDZ016-017-300300-
SOUTHCENTRAL IDAHO


CITY           SKY/WX    TMP DP  RH WIND       PRES   REMARKS
BURLEY         CLOUDY    49  42  77 N3        29.83R
JEROME         MOCLDY    51  39  63 N12       29.84R
TWIN FALLS     MOCLDY    52  35  52 W16       29.84R
$$

IDZ019>023-300300-
SOUTHEAST IDAHO


CITY           SKY/WX    TMP DP  RH WIND       PRES   REMARKS
IDAHO FALLS    CLEAR     48  36  63 S6        29.85R
POCATELLO      CLOUDY    46  42  86 SW8       29.86S
REXBURG        CLOUDY    48  34  58 W5        29.85R
$$

IDZ006-010-011-018-031-032-300300-
CENTRAL IDAHO MOUNTAINS


CITY           SKY/WX    TMP DP  RH WIND       PRES   REMARKS
MCCALL         PTCLDY    43  32  65 N8        29.92R
HAILEY         LGT RAIN  45  37  76 N6        29.89R
STANLEY          N/A     41  33  73 W3        29.90R
SALMON         CLOUDY    48  34  57 W3        29.89R
CHALLIS        CLOUDY    47  35  63 N10       29.87R
$$

IDZ002-004-006-007-026-300300-
NORTHERN IDAHO


CITY           SKY/WX    TMP DP  RH WIND       PRES   REMARKS
LEWISTON       LGT RAIN  51  47  86 CALM      30.00R
LOWELL           N/A     50  48  93 CALM      30.02R
COEUR D`ALENE  CLOUDY    54  37  54 W7        29.96R
MULLAN PASS    SNOW      32  32 100 NW3       29.96R VSB 1/4
$$




USA.gov is the U.S. government's official web portal to all federal, state and local government web resources and services.